Location: Ab? ar R?sh Ba?r?
(24.1861°N, 32.8847°E)
Time: 09:28:26
(UTC+00:00)

OBJECT J - Visible Passes

Search period start: 17 August 2022 00:00
Search period end: 27 August 2022 00:00
Orbit: 581 x 600 km, 97.4° (Epoch: 16 August)

Date Brightness Start Highest point End Pass type
(mag) Time Alt. Az. Time Alt. Az. Time Alt. Az.
17 Aug ? 17:04:48 10° NE 17:08:25 29° E 17:12:00 10° SSE visible
17 Aug ? 18:41:42 10° NW 18:43:38 13° WNW 18:45:35 10° W visible
18 Aug ? 17:12:49 10° NNE 17:16:40 38° E 17:20:30 10° SSE visible
19 Aug ? 17:20:55 10° NNE 17:24:55 50° E 17:28:55 10° S visible
20 Aug ? 17:29:04 10° NNE 17:33:10 68° E 17:37:15 10° S visible
21 Aug ? 17:37:16 10° N 17:41:24 89° E 17:45:31 10° SSW visible
22 Aug ? 17:45:32 10° N 17:49:38 69° WNW 17:53:42 10° SSW visible
23 Aug ? 17:53:50 10° N 17:57:50 51° WNW 18:01:50 10° SSW visible
24 Aug ? 18:02:12 10° N 18:06:02 39° WNW 18:09:53 10° SW visible
25 Aug ? 16:36:58 10° ENE 16:38:43 12° E 16:40:27 10° ESE visible
25 Aug ? 18:10:38 10° NNW 18:14:14 30° WNW 18:17:50 10° SW visible
26 Aug ? 16:44:23 10° ENE 16:46:59 16° E 16:49:35 10° SE visible
26 Aug ? 18:19:07 10° NNW 18:22:25 23° WNW 18:25:42 10° SW visible
